[[{"header":{"parameterUnit":"m.s-1","parameterCategory":1,"la1":30.2991,"la2":30.254,"lo1":-89.0895,"lo2":-89.0444,"dy":0.0017,"dx":0.0017,"nx":28,"ny":28,"refTime":"2026-02-01T09:00:00:Z","depth":0,"parameterNumber":2,"parameterNumberName":"U-component_of_WINDS"},"data":[0,0,0,0,0,0,0,0,0,0,0,0,0,0,0,0,0,0,0,0,0,0,0,0,0,0,0,0,0,0,0,0,0,0,0,0,0,0,0,0,0,0,0,0,0,0,0,0,0,0,0,0,0,0,0,0,0,0,1.9747,1.9748,0,1.9836,1.9837,1.9838,1.9853,1.9852,1.9851,1.985,1.9947,1.995,1.9954,0,0,0,0,0,0,0,0,0,0,0,0,0,1.9594,1.9596,1.9747,1.9748,1.9749,1.9836,1.9837,1.9839,1.9853,1.9852,1.9851,1.985,1.9946,1.995,1.9954,0,0,0,0,0,0,0,0,0,0,0,0,0,1.967,1.9597,1.9746,1.9766,1.9769,1.9836,1.9837,1.9839,1.9853,1.9852,1.985,1.9849,1.9945,1.9949,1.9954,2.0009,0,0,1.997,1.9972,0,0,0,0,0,0,0,0,1.9665,1.9675,1.9762,1.9765,1.9768,1.9832,1.9819,1.9896,1.9853,1.9821,1.985,1.9849,1.991,1.9918,1.9937,2.0014,2.0018,1.997,1.9973,1.9975,1.9977,0,0,0,0,0,0,0,1.966,1.9671,1.9782,1.9763,1.9767,1.9773,1.9782,1.9834,1.9871,1.9824,1.9825,1.9835,1.9911,1.9933,1.994,2.0019,1.997,1.9974,1.9977,1.9979,2.0149,2.015,0,0,0,0,0,0,1.965,1.9667,1.9779,1.9785,1.9712,1.9776,1.9787,1.9813,1.9871,1.9878,1.9836,1.9836,1.9925,1.9934,1.9943,2.0013,1.9975,1.998,1.9983,2.0147,2.0149,2.0151,0,0,0,0,0,0,1.9647,1.966,1.9776,1.9726,1.9741,1.978,1.9809,1.9815,1.9836,1.988,1.9887,1.985,1.9924,1.9936,1.9993,2.0017,1.9982,1.9987,2.0145,2.0148,2.015,2.0152,0,0,0,0,0,0,1.9643,1.9659,1.9678,1.9727,1.9744,1.9822,1.9811,1.9818,1.9844,1.9844,1.9895,1.9903,1.9924,1.9986,1.9998,2.0023,1.9991,2.0143,2.0146,2.0149,2.015,2.0154,2.0158,0,0,0,0,0,1.9637,1.9676,1.9679,1.9693,1.9769,1.9823,1.9834,1.9856,1.9846,1.9867,1.9896,1.9901,2.0012,1.9991,2.0005,2.0032,2.0142,2.0146,2.0149,2.0149,2.0154,2.0158,0,0,0,0,0,0,1.9631,1.9683,1.9687,1.9742,1.9778,1.9826,1.9853,1.986,1.99,1.9899,1.9926,1.9938,1.9994,2.0019,1.9995,2.009,2.0077,2.0083,2.0072,2.0077,2.008,2.0074,1.9995,0,0,0,0,0,1.9636,1.9674,1.9718,1.9763,1.978,1.9814,1.9838,1.9852,1.9891,1.9907,1.9939,1.9979,2.0023,2.0051,2.0093,2.0154,2.0167,2.018,2.0183,2.0186,2.0192,2.0228,2.0235,2.0162,2.0162,2.0162,0,0,1.9647,1.968,1.9702,1.9762,1.9792,1.9833,1.9826,1.9869,1.9901,1.9914,1.9969,1.9995,2.0041,2.01,2.0128,2.0123,2.0215,2.0191,2.0193,2.0197,2.0233,2.0239,2.0246,2.0164,2.0164,2.0163,0,0,1.9688,1.9716,1.9757,1.9787,1.9831,1.9854,1.9864,1.991,1.9928,1.9983,1.9995,2.0034,2.0108,2.0141,2.0167,2.0223,2.023,2.0236,2.0256,2.0291,2.0297,2.0303,2.0325,2.0332,2.0241,2.0241,2.0241,0,1.9697,1.9757,1.9778,1.9821,1.9848,1.9861,1.9905,1.9933,1.999,2.0009,2.0002,2.0097,2.0129,2.0197,2.0211,2.0231,2.0245,2.0231,2.0294,2.03,2.0305,2.0327,2.0334,2.0242,2.0242,2.0242,2.0242,0,1.9766,1.9808,1.9837,1.989,1.9921,1.9964,1.9994,2.0022,2.0034,2.0058,2.0117,2.0155,2.0207,2.0224,2.0236,2.0295,2.029,2.0288,2.0276,2.0312,2.0333,2.0341,2.0243,2.0243,2.0242,2.0242,0,0,1.9806,1.9871,1.9881,1.9907,1.9957,1.9991,2.0036,2.0086,2.0111,2.015,2.019,2.0254,2.0253,2.0283,2.0299,2.033,2.0374,2.0324,2.0326,2.0334,2.0444,2.0446,2.0455,2.0379,2.0381,2.0382,2.0441,0,1.9854,1.9933,1.9954,2.0022,2.0062,2.0076,2.0116,2.0152,2.0176,2.0216,2.0243,2.0288,2.0282,2.0301,2.0331,2.0362,2.0397,2.0358,2.0419,2.0421,2.0408,2.0465,2.0467,2.0521,2.0449,2.045,2.0451,0,1.9921,1.996,2.0032,2.0079,2.0097,2.0132,2.018,2.0217,2.026,2.0275,2.031,2.0324,2.0374,2.0358,2.0429,2.0402,2.0428,2.0447,2.045,2.0457,2.0439,2.0476,2.0538,2.0547,2.0464,2.0463,2.0462,0,1.9944,2.0016,2.0068,2.0089,2.0146,2.017,2.0195,2.0237,2.0266,2.0309,2.0328,2.0377,2.0404,2.0442,2.047,2.0455,2.0539,2.0525,2.0556,2.0555,2.0573,2.0572,2.0642,2.0588,2.0588,2.0588,2.0588,0,1.9997,2.004,2.008,2.0112,2.0163,2.0188,2.0238,2.0263,2.0301,2.034,2.0355,2.0393,2.0426,2.0469,2.0491,2.0548,2.056,2.0575,2.0581,2.0575,2.0573,2.0593,2.059,2.059,2.059,2.0589,2.0589,0,2.0032,2.006,2.0118,2.0167,2.018,2.0215,2.0258,2.0291,2.0316,2.0366,2.0379,2.0419,2.047,2.0501,2.0566,2.0581,2.0644,2.0647,2.0629,2.0632,2.0661,2.0658,2.0748,2.0762,2.0697,2.0697,2.0698,0,2.0064,2.0098,2.015,2.0177,2.0202,2.0245,2.0274,2.0302,2.0332,2.0385,2.0413,2.0464,2.0507,2.0588,2.0624,2.0675,2.0681,2.0709,2.0688,2.0682,2.0683,2.0681,2.0686,2.0712,2.0713,2.0713,2.0714,0,2.0118,2.0131,2.0172,2.0219,2.0254,2.0292,2.0331,2.0353,2.0387,2.0421,2.0473,2.0506,2.0572,2.0624,2.0678,2.0706,2.0717,2.0719,2.073,2.0724,2.0712,2.0721,2.064,2.0718,2.0717,2.0717,2.0717,2.0716,2.0154,2.0186,2.0228,2.0274,2.0306,2.0342,2.0376,2.0405,2.0448,2.0503,2.0517,2.0572,2.0617,2.069,2.072,2.0765,2.0761,2.0775,2.0779,2.0782,2.0783,2.0704,2.0774,2.0774,2.0774,2.0774,2.0774,0,2.0211,2.0239,2.0281,2.0335,2.0372,2.0376,2.042,2.0451,2.0499,2.0539,2.0581,2.0642,2.0693,2.0733,2.0786,2.0814,2.0821,2.0827,2.0826,2.0833,2.0783,2.077,2.0822,2.0822,2.0822,2.0822,2.0822,2.0822,2.0245,2.0299,2.0317,2.0388,2.0417,2.0469,2.0494,2.0529,2.0561,2.0628,2.067,2.0695,2.0736,2.0792,2.084,2.0851,2.0871,2.0877,2.0889,2.0842,2.0836,2.0831,2.0819,2.0881,2.0881,2.0936,2.0936,2.0936]},{"header":{"parameterUnit":"m.s-1","parameterCategory":1,"la1":30.2991,"la2":30.254,"lo1":-89.0895,"lo2":-89.0444,"dy":0.0017,"dx":0.0017,"nx":28,"ny":28,"refTime":"2026-02-01T09:00:00:Z","depth":0,"parameterNumber":3,"parameterNumberName":"V-component_of_WINDS"},"data":[0,0,0,0,0,0,0,0,0,0,0,0,0,0,0,0,0,0,0,0,0,0,0,0,0,0,0,0,0,0,0,0,0,0,0,0,0,0,0,0,0,0,0,0,0,0,0,0,0,0,0,0,0,0,0,0,0,0,1.4653,1.4653,0,1.4655,1.4656,1.4656,1.4644,1.4644,1.4643,1.4643,1.4644,1.4645,1.4645,0,0,0,0,0,0,0,0,0,0,0,0,0,1.4634,1.4634,1.4653,1.4653,1.4653,1.4655,1.4656,1.4656,1.4644,1.4644,1.4643,1.4643,1.4644,1.4645,1.4645,0,0,0,0,0,0,0,0,0,0,0,0,0,1.464,1.4634,1.4653,1.4647,1.4647,1.4655,1.4656,1.4656,1.4644,1.4644,1.4643,1.4643,1.4644,1.4645,1.4645,1.4658,0,0,1.4647,1.4647,0,0,0,0,0,0,0,0,1.4639,1.464,1.4648,1.4648,1.4647,1.4649,1.4649,1.4656,1.4644,1.4645,1.4643,1.4643,1.4646,1.4646,1.4648,1.4658,1.4658,1.4647,1.4647,1.4647,1.4647,0,0,0,0,0,0,0,1.4639,1.464,1.4654,1.4648,1.4648,1.4644,1.4644,1.4651,1.4648,1.4645,1.4644,1.4645,1.4646,1.4648,1.4648,1.4658,1.4647,1.4647,1.4648,1.4648,1.4676,1.4677,0,0,0,0,0,0,1.464,1.464,1.4654,1.4654,1.4642,1.4644,1.4645,1.4649,1.4648,1.4648,1.4645,1.4644,1.4647,1.4647,1.4648,1.4662,1.4647,1.4648,1.4648,1.4676,1.4677,1.4677,0,0,0,0,0,0,1.4639,1.4641,1.4653,1.4647,1.4648,1.4645,1.465,1.4649,1.4651,1.4649,1.4648,1.4648,1.4647,1.4647,1.4655,1.4662,1.4648,1.4648,1.4675,1.4676,1.4677,1.469,0,0,0,0,0,0,1.4639,1.4641,1.4647,1.4647,1.4648,1.4662,1.465,1.465,1.4652,1.4651,1.4651,1.465,1.4646,1.4655,1.4656,1.4662,1.4649,1.4675,1.4676,1.4677,1.4689,1.4691,1.4693,0,0,0,0,0,1.4638,1.4651,1.4647,1.4649,1.4656,1.4662,1.4663,1.4659,1.4653,1.4658,1.4656,1.465,1.4661,1.4656,1.4657,1.4663,1.4674,1.4675,1.4676,1.4688,1.4691,1.4693,0,0,0,0,0,0,1.4652,1.4651,1.4647,1.466,1.4661,1.466,1.4667,1.4662,1.4665,1.4664,1.4658,1.4658,1.4666,1.4665,1.466,1.4674,1.4666,1.4668,1.4675,1.4677,1.4679,1.4679,1.4649,0,0,0,0,0,1.4657,1.4663,1.4661,1.4673,1.4673,1.467,1.4673,1.4669,1.467,1.467,1.4669,1.4669,1.4672,1.4675,1.4678,1.4689,1.4687,1.4693,1.4695,1.4697,1.4698,1.4701,1.4703,1.468,1.468,1.468,0,0,1.4666,1.4666,1.4671,1.4675,1.4676,1.4681,1.4671,1.4677,1.468,1.4671,1.4678,1.4677,1.4677,1.4686,1.469,1.4685,1.4704,1.4698,1.4699,1.47,1.4702,1.4705,1.4707,1.4681,1.4681,1.4681,0,0,1.4686,1.4687,1.4696,1.4696,1.4697,1.4694,1.4696,1.4696,1.4694,1.4701,1.4694,1.4697,1.4703,1.4703,1.4703,1.4719,1.4713,1.472,1.473,1.4734,1.4735,1.4737,1.4741,1.4743,1.4722,1.4722,1.4722,0,1.4698,1.4706,1.4701,1.4708,1.4709,1.47,1.4708,1.4709,1.471,1.4711,1.4706,1.4712,1.4711,1.4718,1.4722,1.4723,1.4724,1.4721,1.4736,1.4737,1.4738,1.4742,1.4744,1.4722,1.4722,1.4722,1.4722,0,1.4719,1.4725,1.4732,1.4733,1.4735,1.4742,1.4737,1.4739,1.4735,1.4732,1.4738,1.4736,1.4738,1.4739,1.4735,1.4745,1.4742,1.4737,1.4729,1.4742,1.4745,1.4747,1.4723,1.4723,1.4723,1.4723,0,0,1.4749,1.4746,1.4748,1.4748,1.4747,1.475,1.4756,1.4757,1.4758,1.4759,1.4762,1.4766,1.476,1.4761,1.4756,1.4759,1.477,1.4753,1.4753,1.4755,1.4779,1.4782,1.4784,1.4766,1.4766,1.4766,1.4778,0,1.4767,1.4777,1.4772,1.4782,1.4786,1.4777,1.4781,1.478,1.4777,1.4779,1.4775,1.4777,1.477,1.477,1.4772,1.4768,1.4774,1.4767,1.4767,1.4768,1.4767,1.4786,1.4791,1.4802,1.478,1.478,1.478,0,1.479,1.4791,1.4802,1.4797,1.4799,1.4803,1.4803,1.4805,1.4802,1.48,1.4799,1.4793,1.4796,1.4788,1.4791,1.4786,1.4786,1.4784,1.4784,1.4783,1.4774,1.4785,1.4806,1.4807,1.4782,1.4782,1.4782,0,1.4809,1.4813,1.4819,1.4819,1.4815,1.4817,1.4816,1.4813,1.4813,1.4812,1.4812,1.4812,1.4811,1.481,1.4803,1.4798,1.4806,1.4798,1.4803,1.4803,1.4805,1.4805,1.4825,1.4806,1.4806,1.4806,1.4806,0,1.4829,1.4836,1.4827,1.4831,1.4837,1.483,1.4836,1.4833,1.483,1.4831,1.4823,1.4825,1.4816,1.4816,1.4811,1.4813,1.4813,1.481,1.4809,1.4811,1.4811,1.481,1.4809,1.4807,1.4806,1.4806,1.4806,0,1.4851,1.4846,1.4852,1.4847,1.4846,1.485,1.4845,1.4847,1.4843,1.4845,1.4845,1.4838,1.4838,1.4831,1.4829,1.4825,1.4829,1.4826,1.483,1.4829,1.4834,1.4833,1.4853,1.4855,1.4836,1.4836,1.4836,0,1.4865,1.4869,1.4864,1.4865,1.4863,1.4865,1.4865,1.4857,1.4857,1.4853,1.4855,1.4854,1.4853,1.4852,1.4846,1.4844,1.4841,1.4848,1.484,1.4841,1.4839,1.4839,1.4838,1.4849,1.4849,1.485,1.485,0,1.4888,1.4884,1.4885,1.4884,1.4884,1.4883,1.4881,1.4881,1.4873,1.4873,1.4872,1.4871,1.4869,1.4867,1.4863,1.486,1.4853,1.4852,1.4853,1.4855,1.4856,1.4854,1.4833,1.4852,1.4852,1.4851,1.4851,1.4851,1.4905,1.4907,1.4904,1.4904,1.4901,1.4899,1.4901,1.4896,1.4896,1.4893,1.4888,1.4888,1.4883,1.4877,1.4874,1.4873,1.4869,1.487,1.4871,1.4871,1.4871,1.4857,1.4872,1.4872,1.4872,1.4872,1.4872,0,1.4926,1.4923,1.4923,1.492,1.492,1.4913,1.491,1.491,1.491,1.4906,1.4905,1.4903,1.4901,1.4894,1.489,1.489,1.4887,1.4889,1.4889,1.4888,1.4876,1.4875,1.4892,1.4892,1.4892,1.4892,1.4892,1.4892,1.4937,1.4941,1.4936,1.4938,1.4934,1.4934,1.4933,1.493,1.4927,1.4925,1.4923,1.4919,1.4913,1.4909,1.4906,1.4903,1.4902,1.4906,1.4902,1.4891,1.4889,1.4887,1.4886,1.4906,1.4906,1.4915,1.4915,1.4915]}]]